Year,Month,Day,Hour,Minute,Value (Times are PST for temperature in C)
2012,04,16,16,54,8.90
2012,04,16,16,55,8.90
2012,04,16,16,56,8.90
2012,04,16,16,57,8.90
2012,04,16,16,58,8.90
2012,04,16,16,59,8.90
2012,04,16,17,00,8.90
2012,04,16,17,01,8.90
2012,04,16,17,02,8.90
2012,04,16,17,03,8.80
2012,04,16,17,04,8.80
2012,04,16,17,05,8.70
2012,04,16,17,06,8.70
2012,04,16,17,07,8.60
2012,04,16,17,08,8.60
2012,04,16,17,09,8.60
2012,04,16,17,10,8.60
2012,04,16,17,11,8.60
2012,04,16,17,12,8.60
2012,04,16,17,13,8.60
2012,04,16,17,14,8.60
2012,04,16,17,15,8.60
2012,04,16,17,16,8.60
2012,04,16,17,17,8.60
2012,04,16,17,18,8.60
2012,04,16,17,19,8.60
2012,04,16,17,20,8.60
2012,04,16,17,21,8.60
2012,04,16,17,22,8.70
2012,04,16,17,23,8.70
2012,04,16,17,24,8.70
2012,04,16,17,25,8.70
2012,04,16,17,26,8.70
2012,04,16,17,27,8.70
2012,04,16,17,28,8.60
2012,04,16,17,29,8.60
2012,04,16,17,30,8.60
2012,04,16,17,31,8.60
2012,04,16,17,32,8.70
2012,04,16,17,33,8.70
2012,04,16,17,34,8.70
2012,04,16,17,35,8.70
2012,04,16,17,36,8.70
2012,04,16,17,37,8.70
2012,04,16,17,38,8.70
2012,04,16,17,39,8.70
2012,04,16,17,40,8.70
2012,04,16,17,41,8.80
2012,04,16,17,42,8.70
2012,04,16,17,43,8.70
2012,04,16,17,44,8.70
2012,04,16,17,45,8.70
2012,04,16,17,46,8.70
2012,04,16,17,47,8.60
2012,04,16,17,48,8.60
2012,04,16,17,49,8.60
2012,04,16,17,50,8.60
2012,04,16,17,51,8.60
2012,04,16,17,52,8.60
2012,04,16,17,53,8.60
2012,04,16,17,54,8.50
2012,04,16,17,55,8.50
2012,04,16,17,56,8.50
2012,04,16,17,57,8.40
2012,04,16,17,58,8.40
2012,04,16,17,59,8.40
2012,04,16,18,00,8.40
2012,04,16,18,01,8.40
2012,04,16,18,02,8.40
2012,04,16,18,03,8.40
2012,04,16,18,04,8.40
2012,04,16,18,05,8.30
2012,04,16,18,06,8.30
2012,04,16,18,07,8.30
2012,04,16,18,08,8.20
2012,04,16,18,09,8.20
2012,04,16,18,10,8.10
2012,04,16,18,11,8.00
2012,04,16,18,12,8.00
2012,04,16,18,13,7.90
2012,04,16,18,14,7.80
2012,04,16,18,15,7.80
2012,04,16,18,16,7.80
2012,04,16,18,17,7.70
2012,04,16,18,18,7.70
2012,04,16,18,19,7.70
2012,04,16,18,20,7.60
2012,04,16,18,21,7.60
2012,04,16,18,22,7.50
2012,04,16,18,23,7.50
2012,04,16,18,24,7.40
2012,04,16,18,25,7.40
2012,04,16,18,26,7.40
2012,04,16,18,27,7.40
2012,04,16,18,28,7.30
2012,04,16,18,29,7.20
2012,04,16,18,30,7.20
2012,04,16,18,31,7.10
2012,04,16,18,32,7.00
2012,04,16,18,33,7.00
2012,04,16,18,34,6.90
2012,04,16,18,35,6.90
2012,04,16,18,36,6.90
2012,04,16,18,37,6.90
2012,04,16,18,38,6.90
2012,04,16,18,39,6.90
2012,04,16,18,40,6.90
2012,04,16,18,41,6.80
2012,04,16,18,42,6.80
2012,04,16,18,43,6.80
2012,04,16,18,44,6.90
2012,04,16,18,45,6.90
2012,04,16,18,46,6.90
2012,04,16,18,47,6.90
2012,04,16,18,48,6.90
2012,04,16,18,49,6.90
2012,04,16,18,50,6.90
2012,04,16,18,51,6.90
2012,04,16,18,52,6.90
2012,04,16,18,53,6.90
2012,04,16,18,54,6.90
2012,04,16,18,55,6.90
2012,04,16,18,56,6.90
2012,04,16,18,57,6.90
2012,04,16,18,58,6.90
2012,04,16,18,59,6.90
2012,04,16,19,00,6.90
2012,04,16,19,01,6.80
2012,04,16,19,02,6.80
2012,04,16,19,03,6.80
2012,04,16,19,04,6.80
2012,04,16,19,05,6.80
2012,04,16,19,06,6.80
2012,04,16,19,07,6.80
2012,04,16,19,08,6.80
2012,04,16,19,09,6.70
2012,04,16,19,10,6.70
2012,04,16,19,11,6.70
2012,04,16,19,12,6.70
2012,04,16,19,13,6.70
2012,04,16,19,14,6.70
2012,04,16,19,15,6.70
2012,04,16,19,16,6.70
2012,04,16,19,17,6.80
2012,04,16,19,18,6.80
2012,04,16,19,19,6.80
2012,04,16,19,20,6.80
2012,04,16,19,21,6.80
2012,04,16,19,22,6.80
2012,04,16,19,23,6.80
2012,04,16,19,24,6.80
2012,04,16,19,25,6.80
2012,04,16,19,26,6.80
2012,04,16,19,27,6.80
2012,04,16,19,28,6.80
2012,04,16,19,29,6.80
2012,04,16,19,30,6.80
2012,04,16,19,31,6.80
2012,04,16,19,32,6.80
2012,04,16,19,33,6.80
2012,04,16,19,34,6.80
2012,04,16,19,35,6.80
2012,04,16,19,36,6.70
2012,04,16,19,37,6.70
2012,04,16,19,38,6.70
2012,04,16,19,39,6.70
2012,04,16,19,40,6.70
2012,04,16,19,41,6.70
2012,04,16,19,42,6.70
2012,04,16,19,43,6.70
2012,04,16,19,44,6.70
2012,04,16,19,45,6.70
2012,04,16,19,46,6.70
2012,04,16,19,47,6.80
2012,04,16,19,48,6.80
2012,04,16,19,49,6.80
2012,04,16,19,50,6.80
2012,04,16,19,51,6.80
2012,04,16,19,52,6.80
2012,04,16,19,53,6.80
2012,04,16,19,54,6.80
2012,04,16,19,55,6.80
2012,04,16,19,56,6.80
2012,04,16,19,57,6.80
2012,04,16,19,58,6.70
2012,04,16,19,59,6.70
2012,04,16,20,00,6.70
2012,04,16,20,01,6.70
2012,04,16,20,02,6.70
2012,04,16,20,03,6.70
2012,04,16,20,04,6.70
2012,04,16,20,05,6.60
2012,04,16,20,06,6.60
2012,04,16,20,07,6.60
2012,04,16,20,08,6.60
2012,04,16,20,09,6.60
2012,04,16,20,10,6.60
2012,04,16,20,11,6.60
2012,04,16,20,12,6.60
2012,04,16,20,13,6.60
2012,04,16,20,14,6.60
2012,04,16,20,15,6.60
2012,04,16,20,16,6.60
2012,04,16,20,17,6.60
2012,04,16,20,18,6.60
2012,04,16,20,19,6.60
2012,04,16,20,20,6.60
2012,04,16,20,21,6.60
2012,04,16,20,22,6.60
2012,04,16,20,23,6.60
2012,04,16,20,24,6.60
2012,04,16,20,25,6.60
2012,04,16,20,26,6.60
2012,04,16,20,27,6.60
2012,04,16,20,28,6.60
2012,04,16,20,29,6.60
2012,04,16,20,30,6.60
2012,04,16,20,31,6.70
2012,04,16,20,32,6.60
2012,04,16,20,33,6.60
2012,04,16,20,34,6.70
2012,04,16,20,35,6.70
2012,04,16,20,36,6.70
2012,04,16,20,37,6.70
2012,04,16,20,38,6.70
2012,04,16,20,39,6.70
2012,04,16,20,40,6.70
2012,04,16,20,41,6.70
2012,04,16,20,42,6.70
2012,04,16,20,43,6.70
2012,04,16,20,44,6.70
2012,04,16,20,45,6.70
2012,04,16,20,46,6.70
2012,04,16,20,47,6.70
2012,04,16,20,48,6.70
2012,04,16,20,49,6.70
2012,04,16,20,50,6.70
2012,04,16,20,51,6.70
2012,04,16,20,52,6.70
2012,04,16,20,53,6.70
2012,04,16,20,54,6.70
2012,04,16,20,55,6.70
2012,04,16,20,56,6.70
2012,04,16,20,57,6.70
2012,04,16,20,58,6.70
2012,04,16,20,59,6.70
2012,04,16,21,00,6.70
2012,04,16,21,01,6.70
2012,04,16,21,02,6.70
2012,04,16,21,03,6.70
2012,04,16,21,04,6.70
2012,04,16,21,05,6.70
2012,04,16,21,06,6.70
2012,04,16,21,07,6.70
2012,04,16,21,08,6.70
2012,04,16,21,09,6.70
2012,04,16,21,10,6.70
2012,04,16,21,11,6.70
2012,04,16,21,12,6.70
2012,04,16,21,13,6.70
2012,04,16,21,14,6.70
2012,04,16,21,15,6.70
2012,04,16,21,16,6.70
2012,04,16,21,17,6.70
2012,04,16,21,18,6.80
2012,04,16,21,19,6.80
2012,04,16,21,20,6.80
2012,04,16,21,21,6.80
2012,04,16,21,22,6.80
2012,04,16,21,23,6.80
2012,04,16,21,24,6.80
2012,04,16,21,25,6.80
2012,04,16,21,26,6.80
2012,04,16,21,27,6.80
2012,04,16,21,28,6.80
2012,04,16,21,29,6.80
2012,04,16,21,30,6.80
2012,04,16,21,31,6.80
2012,04,16,21,32,6.70
2012,04,16,21,33,6.70
2012,04,16,21,34,6.70
2012,04,16,21,35,6.70
2012,04,16,21,36,6.70
2012,04,16,21,37,6.70
2012,04,16,21,38,6.70
2012,04,16,21,39,6.70
2012,04,16,21,40,6.70
2012,04,16,21,41,6.60
2012,04,16,21,42,6.60
2012,04,16,21,43,6.60
2012,04,16,21,44,6.60
2012,04,16,21,45,6.60
2012,04,16,21,46,6.60
2012,04,16,21,47,6.60
2012,04,16,21,48,6.60
2012,04,16,21,49,6.60
2012,04,16,21,50,6.60
2012,04,16,21,51,6.60
2012,04,16,21,52,6.60
2012,04,16,21,53,6.60
2012,04,16,21,54,6.60
2012,04,16,21,55,6.60
2012,04,16,21,56,6.60
2012,04,16,21,57,6.60
2012,04,16,21,58,6.70
2012,04,16,21,59,6.70
2012,04,16,22,00,6.70
2012,04,16,22,01,6.70
2012,04,16,22,02,6.70
2012,04,16,22,03,6.70
2012,04,16,22,04,6.70
2012,04,16,22,05,6.70
2012,04,16,22,06,6.70
2012,04,16,22,07,6.70
2012,04,16,22,08,6.70
2012,04,16,22,09,6.70
2012,04,16,22,10,6.70
2012,04,16,22,11,6.70
2012,04,16,22,12,6.70
2012,04,16,22,13,6.70
2012,04,16,22,14,6.70
2012,04,16,22,15,6.70
2012,04,16,22,16,6.70
2012,04,16,22,17,6.70
2012,04,16,22,18,6.70
2012,04,16,22,19,6.60
2012,04,16,22,20,6.60
2012,04,16,22,21,6.60
2012,04,16,22,22,6.60
2012,04,16,22,23,6.60
2012,04,16,22,24,6.60
2012,04,16,22,25,6.60
2012,04,16,22,26,6.60
2012,04,16,22,27,6.60
2012,04,16,22,28,6.50
2012,04,16,22,29,6.50
2012,04,16,22,30,6.50
2012,04,16,22,31,6.40
2012,04,16,22,32,6.40
2012,04,16,22,33,6.40
2012,04,16,22,34,6.40
2012,04,16,22,35,6.40
2012,04,16,22,36,6.40
2012,04,16,22,37,6.40
2012,04,16,22,38,6.40
2012,04,16,22,39,6.30
2012,04,16,22,40,6.30
2012,04,16,22,41,6.30
2012,04,16,22,42,6.20
2012,04,16,22,43,6.20
2012,04,16,22,44,6.20
2012,04,16,22,45,6.20
2012,04,16,22,46,6.30
2012,04,16,22,47,6.30
2012,04,16,22,48,6.30
2012,04,16,22,49,6.40
2012,04,16,22,50,6.40
2012,04,16,22,51,6.40
2012,04,16,22,52,6.40
2012,04,16,22,53,6.40
2012,04,16,22,54,6.40
2012,04,16,22,55,6.40
2012,04,16,22,56,6.40
2012,04,16,22,57,6.40
2012,04,16,22,58,6.30
2012,04,16,22,59,6.30
2012,04,16,23,00,6.30
2012,04,16,23,01,6.30
2012,04,16,23,02,6.30
2012,04,16,23,03,6.30
2012,04,16,23,04,6.30
2012,04,16,23,05,6.30
2012,04,16,23,06,6.30
2012,04,16,23,07,6.30
2012,04,16,23,08,6.30
2012,04,16,23,09,6.30
2012,04,16,23,10,6.30
2012,04,16,23,11,6.30
2012,04,16,23,12,6.40
2012,04,16,23,13,6.40
2012,04,16,23,14,6.40
2012,04,16,23,15,6.30
2012,04,16,23,16,6.30
2012,04,16,23,17,6.30
2012,04,16,23,18,6.30
2012,04,16,23,19,6.30
2012,04,16,23,20,6.30
2012,04,16,23,21,6.30
2012,04,16,23,22,6.30
2012,04,16,23,23,6.30
2012,04,16,23,24,6.30
2012,04,16,23,25,6.20
2012,04,16,23,26,6.20
2012,04,16,23,27,6.20
2012,04,16,23,28,6.20
2012,04,16,23,29,6.20
2012,04,16,23,30,6.30
2012,04,16,23,31,6.30
2012,04,16,23,32,6.30
2012,04,16,23,33,6.30
2012,04,16,23,34,6.30
2012,04,16,23,35,6.30
2012,04,16,23,36,6.30
2012,04,16,23,37,6.30
2012,04,16,23,38,6.30
2012,04,16,23,39,6.30
2012,04,16,23,40,6.30
2012,04,16,23,41,6.30
2012,04,16,23,42,6.30
2012,04,16,23,43,6.30
2012,04,16,23,44,6.30
2012,04,16,23,45,6.30
2012,04,16,23,46,6.30
2012,04,16,23,47,6.30
2012,04,16,23,48,6.40
2012,04,16,23,49,6.40
2012,04,16,23,50,6.40
2012,04,16,23,51,6.40
2012,04,16,23,52,6.40
2012,04,16,23,53,6.40
2012,04,16,23,54,6.40
2012,04,16,23,55,6.40
2012,04,16,23,56,6.40
2012,04,16,23,57,6.40
2012,04,16,23,58,6.40
2012,04,16,23,59,6.40
